^^
Meteo Knjazevac Station Historical Data
Daily Summary for January 26, 2022 Units:  English    Metric   Both
Daily Weekly Monthly Yearly Custom
  High: Low: Average:
Temperature: 33.8 °F 23.7 °F 29.4 °F
Dew Point: 30.4 °F 17 °F 24.3 °F
Humidity: 91% 70% 81%
Wind Speed: 12mph 0mph 4mph
Wind Gust: 21mph - -
Wind- - SSW
Pressure: 30.38 in 30.30 in -
Precipitation: 0.00 in    
Historical Graphs
 
 
Tabular Data for January 26, 2022
Time Temperature Dew Point Pressure Wind Wind Speed Wind Gust Humidity Rainfall Rate (Hourly) solar Conditions
00:00 23.7 °F 17 °F 30.38 in SW 1 mph 6 mph 75% 0.00 in 0 W/m2
00:10 23.7 °F 17 °F 30.38 in SSE 2 mph 7 mph 75% 0.00 in 0 W/m2
00:20 23.9 °F 17.1 °F 30.38 in SSE 3 mph 6 mph 75% 0.00 in 0 W/m2
00:30 24.1 °F 17.3 °F 30.37 in SE 2 mph 7 mph 75% 0.00 in 0 W/m2
00:40 24.1 °F 17.3 °F 30.37 in SSE 3 mph 7 mph 75% 0.00 in 0 W/m2
00:50 24.1 °F 17.3 °F 30.37 in SSW 3 mph 5 mph 75% 0.00 in 0 W/m2
01:00 24.1 °F 17.3 °F 30.36 in SSE 2 mph 5 mph 75% 0.00 in 0 W/m2
01:10 24.3 °F 17.2 °F 30.37 in SE 2 mph 6 mph 74% 0.00 in 0 W/m2
01:20 24.4 °F 17.3 °F 30.36 in South 2 mph 7 mph 74% 0.00 in 0 W/m2
01:30 24.4 °F 17.3 °F 30.36 in Calm   6 mph 74% 0.00 in 0 W/m2
01:40 24.6 °F 17.4 °F 30.36 in Calm   6 mph 74% 0.00 in 0 W/m2
01:50 24.6 °F 17.2 °F 30.36 in SSE 3 mph 7 mph 73% 0.00 in 0 W/m2
02:00 24.8 °F 17.4 °F 30.36 in SE 3 mph 8 mph 73% 0.00 in 0 W/m2
02:10 24.8 °F 17.4 °F 30.36 in SE 5 mph 8 mph 73% 0.00 in 0 W/m2
02:20 24.9 °F 17.5 °F 30.36 in SSE 2 mph 7 mph 73% 0.00 in 0 W/m2
02:30 25 °F 17.5 °F 30.35 in SE 2 mph 9 mph 73% 0.00 in 0 W/m2
02:40 25.2 °F 17.7 °F 30.35 in SE 3 mph 8 mph 73% 0.00 in 0 W/m2
02:50 25.2 °F 17.7 °F 30.35 in SE 3 mph 12 mph 73% 0.00 in 0 W/m2
03:00 25.2 °F 17.7 °F 30.35 in SE 2 mph 12 mph 73% 0.00 in 0 W/m2
03:10 25.3 °F 17.9 °F 30.35 in SSE 5 mph 9 mph 73% 0.00 in 0 W/m2
03:20 25.3 °F 17.9 °F 30.35 in SE 3 mph 10 mph 73% 0.00 in 0 W/m2
03:30 25.3 °F 17.9 °F 30.35 in SSE 1 mph 8 mph 73% 0.00 in 0 W/m2
03:40 25.5 °F 18.1 °F 30.35 in SSW 2 mph 6 mph 73% 0.00 in 0 W/m2
03:50 25.6 °F 17.9 °F 30.34 in SW 5 mph 7 mph 72% 0.00 in 0 W/m2
04:00 25.7 °F 17.9 °F 30.35 in WSW 6 mph 9 mph 72% 0.00 in 0 W/m2
04:10 25.7 °F 17.3 °F 30.35 in SW 7 mph 10 mph 70% 0.00 in 0 W/m2
04:20 25.8 °F 17.4 °F 30.35 in SW 6 mph 9 mph 70% 0.00 in 0 W/m2
04:30 25.9 °F 17.4 °F 30.35 in WSW 7 mph 13 mph 70% 0.00 in 0 W/m2
04:40 25.9 °F 17.4 °F 30.35 in WSW 8 mph 13 mph 70% 0.00 in 0 W/m2
04:50 25.9 °F 17.4 °F 30.35 in WSW 9 mph 13 mph 70% 0.00 in 0 W/m2
05:00 25.9 °F 17.4 °F 30.35 in SW 6 mph 13 mph 70% 0.00 in 0 W/m2
05:10 25.9 °F 17.4 °F 30.34 in WSW 5 mph 11 mph 70% 0.00 in 0 W/m2
05:20 25.9 °F 17.4 °F 30.34 in WSW 5 mph 9 mph 70% 0.00 in 0 W/m2
05:30 25.9 °F 18.1 °F 30.34 in SW 3 mph 7 mph 72% 0.00 in 0 W/m2
05:40 25.9 °F 17.4 °F 30.35 in WSW 5 mph 8 mph 70% 0.00 in 0 W/m2
05:50 25.8 °F 17.4 °F 30.35 in WSW 3 mph 7 mph 70% 0.00 in 0 W/m2
06:00 25.9 °F 18.1 °F 30.35 in WSW 6 mph 8 mph 72% 0.00 in 0 W/m2
06:10 25.8 °F 18 °F 30.35 in WSW 3 mph 9 mph 72% 0.00 in 0 W/m2
06:20 25.7 °F 17.9 °F 30.35 in SW 5 mph 8 mph 72% 0.00 in 0 W/m2
06:30 25.8 °F 18 °F 30.35 in WSW 5 mph 8 mph 72% 0.00 in 0 W/m2
06:40 25.7 °F 17.9 °F 30.35 in WSW 6 mph 9 mph 72% 0.00 in 0 W/m2
06:50 25.7 °F 17.9 °F 30.35 in WSW 5 mph 6 mph 72% 0.00 in 0 W/m2
07:00 25.9 °F 18.1 °F 30.35 in SW 3 mph 7 mph 72% 0.00 in 1 W/m2
07:10 25.9 °F 18.1 °F 30.35 in SW 3 mph 7 mph 72% 0.00 in 3 W/m2
07:20 26.1 °F 18.6 °F 30.35 in WSW 3 mph 7 mph 73% 0.00 in 4 W/m2
07:30 26.2 °F 18.8 °F 30.35 in SW 6 mph 8 mph 73% 0.00 in 10 W/m2
07:40 26.2 °F 18.8 °F 30.35 in SW 5 mph 7 mph 73% 0.00 in 11 W/m2
07:50 26.4 °F 19.3 °F 30.35 in WSW 5 mph 8 mph 74% 0.00 in 16 W/m2
08:00 26.4 °F 19.3 °F 30.34 in WSW 3 mph 6 mph 74% 0.00 in 16 W/m2
08:10 26.6 °F 19.4 °F 30.34 in WSW 3 mph 6 mph 74% 0.00 in 18 W/m2
08:20 26.6 °F 19.7 °F 30.34 in SW 3 mph 6 mph 75% 0.00 in 21 W/m2
08:30 26.8 °F 20.5 °F 30.34 in SW 5 mph 8 mph 77% 0.00 in 21 W/m2
08:40 26.8 °F 20.8 °F 30.34 in SW 3 mph 8 mph 78% 0.00 in 32 W/m2
08:50 27 °F 21 °F 30.34 in SW 5 mph 7 mph 78% 0.00 in 27 W/m2
09:00 27.1 °F 21.5 °F 30.34 in SW 2 mph 7 mph 79% 0.00 in 27 W/m2
09:10 27.5 °F 21.8 °F 30.35 in South 2 mph 5 mph 79% 0.00 in 35 W/m2
09:20 27.5 °F 21.5 °F 30.35 in Calm   5 mph 78% 0.00 in 30 W/m2
09:30 27.7 °F 21.7 °F 30.34 in South 2 mph 7 mph 78% 0.00 in 37 W/m2
09:40 27.9 °F 22.5 °F 30.34 in SSE 1 mph 7 mph 80% 0.00 in 44 W/m2
09:50 28 °F 22.1 °F 30.35 in SE 3 mph 8 mph 78% 0.00 in 48 W/m2
10:00 28.2 °F 22.2 °F 30.35 in SE 3 mph 8 mph 78% 0.00 in 37 W/m2
10:10 28.2 °F 22.2 °F 30.35 in SE 5 mph 10 mph 78% 0.00 in 40 W/m2
10:20 28.2 °F 22.2 °F 30.35 in SE 3 mph 8 mph 78% 0.00 in 41 W/m2
10:30 28.2 °F 22.5 °F 30.35 in SE 1 mph 9 mph 79% 0.00 in 36 W/m2
10:40 28.4 °F 22.7 °F 30.35 in South 3 mph 8 mph 79% 0.00 in 67 W/m2
10:50 28.6 °F 23.2 °F 30.35 in SE 2 mph 9 mph 80% 0.00 in 31 W/m2
11:00 28.8 °F 23.4 °F 30.34 in SSE 2 mph 7 mph 80% 0.00 in 41 W/m2
11:10 28.8 °F 23.7 °F 30.34 in ESE 3 mph 9 mph 81% 0.00 in 61 W/m2
11:20 28.9 °F 23.8 °F 30.34 in SSE 2 mph 6 mph 81% 0.00 in 86 W/m2
11:30 29.1 °F 24 °F 30.34 in SSE 3 mph 7 mph 81% 0.00 in 101 W/m2
11:40 29.5 °F 24.4 °F 30.33 in SE 3 mph 9 mph 81% 0.00 in 93 W/m2
11:50 29.8 °F 25.3 °F 30.33 in SSW 1 mph 7 mph 83% 0.00 in 164 W/m2
12:00 30.2 °F 25.7 °F 30.33 in SSE 1 mph 6 mph 83% 0.00 in 167 W/m2
12:10 30.7 °F 26.5 °F 30.33 in WSW 3 mph 6 mph 84% 0.00 in 156 W/m2
12:20 31.3 °F 27 °F 30.32 in SSE 2 mph 6 mph 84% 0.00 in 124 W/m2
12:30 31.6 °F 27.1 °F 30.32 in NNE 2 mph 5 mph 83% 0.00 in 115 W/m2
12:40 31.8 °F 27.2 °F 30.32 in North 1 mph 4 mph 83% 0.00 in 120 W/m2
12:50 32.2 °F 27.6 °F 30.32 in ESE 2 mph 5 mph 83% 0.00 in 147 W/m2
13:00 32.4 °F 27.8 °F 30.31 in NNE 1 mph 5 mph 83% 0.00 in 172 W/m2
13:10 32.7 °F 27.5 °F 30.31 in East 1 mph 6 mph 81% 0.00 in 153 W/m2
13:20 33.1 °F 27.9 °F 30.31 in NE 1 mph 5 mph 81% 0.00 in 180 W/m2
13:30 33.3 °F 28.1 °F 30.31 in WSW 2 mph 6 mph 81% 0.00 in 200 W/m2
13:40 33.6 °F 28.4 °F 30.30 in WSW 7 mph 9 mph 81% 0.00 in 150 W/m2
13:50 33.8 °F 28.6 °F 30.30 in WSW 6 mph 13 mph 81% 0.00 in 99 W/m2
14:00 33.8 °F 28.6 °F 30.31 in WSW 7 mph 12 mph 81% 0.00 in 106 W/m2
14:10 33.8 °F 29.2 °F 30.30 in WSW 7 mph 13 mph 83% 0.00 in 102 W/m2
14:20 33.8 °F 29.2 °F 30.31 in WSW 8 mph 14 mph 83% 0.00 in 107 W/m2
14:30 33.6 °F 29 °F 30.30 in West 9 mph 14 mph 83% 0.00 in 113 W/m2
14:40 33.6 °F 29.3 °F 30.30 in WSW 12 mph 19 mph 84% 0.00 in 92 W/m2
14:50 33.4 °F 29.1 °F 30.30 in WSW 9 mph 18 mph 84% 0.00 in 92 W/m2
15:00 33.4 °F 29.4 °F 30.30 in WSW 12 mph 21 mph 85% 0.00 in 86 W/m2
15:10 33.4 °F 29.4 °F 30.31 in West 10 mph 20 mph 85% 0.00 in 68 W/m2
15:20 33.3 °F 29.2 °F 30.31 in WSW 9 mph 14 mph 85% 0.00 in 62 W/m2
15:30 33.3 °F 29.5 °F 30.31 in WSW 5 mph 14 mph 86% 0.00 in 34 W/m2
15:40 33.3 °F 29.5 °F 30.31 in WSW 8 mph 13 mph 86% 0.00 in 45 W/m2
15:50 33.3 °F 29.5 °F 30.31 in WSW 7 mph 14 mph 86% 0.00 in 45 W/m2
16:00 33.3 °F 29.5 °F 30.31 in WSW 7 mph 13 mph 86% 0.00 in 27 W/m2
16:10 33.1 °F 29.3 °F 30.31 in WSW 6 mph 14 mph 86% 0.00 in 11 W/m2
16:20 32.9 °F 29.7 °F 30.31 in West 7 mph 14 mph 88% 0.00 in 9 W/m2
16:30 32.7 °F 29.6 °F 30.31 in West 3 mph 8 mph 88% 0.00 in 4 W/m2
16:40 32.7 °F 29.6 °F 30.31 in WSW 8 mph 12 mph 88% 0.00 in 0 W/m2
16:50 32.5 °F 29.4 °F 30.32 in WSW 7 mph 12 mph 88% 0.00 in 0 W/m2
17:00 32.5 °F 29.4 °F 30.32 in WSW 5 mph 12 mph 88% 0.00 in 0 W/m2
17:10 32.5 °F 29.7 °F 30.32 in WSW 5 mph 8 mph 89% 0.00 in 0 W/m2
17:20 32.5 °F 29.6 °F 30.32 in WSW 6 mph 9 mph 89% 0.00 in 0 W/m2
17:30 32.5 °F 29.7 °F 30.32 in WSW 5 mph 8 mph 89% 0.00 in 0 W/m2
17:40 32.5 °F 29.7 °F 30.32 in WSW 5 mph 8 mph 89% 0.00 in 0 W/m2
17:50 32.5 °F 29.7 °F 30.33 in WSW 3 mph 9 mph 89% 0.00 in 0 W/m2
18:00 32.4 °F 29.5 °F 30.33 in WSW 1 mph 5 mph 89% 0.00 in 0 W/m2
18:10 32.4 °F 29.2 °F 30.33 in SW 2 mph 5 mph 88% 0.00 in 0 W/m2
18:20 32.4 °F 29.5 °F 30.33 in WSW 5 mph 10 mph 89% 0.00 in 0 W/m2
18:30 32.5 °F 29.9 °F 30.33 in SW 3 mph 10 mph 90% 0.00 in 0 W/m2
18:40 32.6 °F 30 °F 30.33 in WSW 6 mph 9 mph 90% 0.00 in 0 W/m2
18:50 32.5 °F 29.9 °F 30.33 in WSW 3 mph 9 mph 90% 0.00 in 0 W/m2
19:00 32.5 °F 30.2 °F 30.33 in WSW 6 mph 8 mph 91% 0.00 in 0 W/m2
19:10 32.5 °F 30.2 °F 30.33 in WSW 6 mph 9 mph 91% 0.00 in 0 W/m2
19:20 32.5 °F 30.2 °F 30.33 in WSW 6 mph 9 mph 91% 0.00 in 0 W/m2
19:30 32.5 °F 30.2 °F 30.33 in WSW 5 mph 10 mph 91% 0.00 in 0 W/m2
19:40 32.5 °F 30.2 °F 30.33 in WSW 6 mph 10 mph 91% 0.00 in 0 W/m2
19:50 32.5 °F 30.2 °F 30.33 in WSW 5 mph 10 mph 91% 0.00 in 0 W/m2
20:10 32.5 °F 30.2 °F 30.33 in WSW 5 mph 11 mph 91% 0.00 in 0 W/m2
20:20 32.7 °F 30.4 °F 30.33 in WSW 5 mph 9 mph 91% 0.00 in 0 W/m2
20:30 32.7 °F 30.4 °F 30.33 in WSW 5 mph 10 mph 91% 0.00 in 0 W/m2
20:40 32.7 °F 30.4 °F 30.33 in WSW 5 mph 9 mph 91% 0.00 in 0 W/m2
20:50 32.7 °F 30.4 °F 30.33 in WSW 3 mph 7 mph 91% 0.00 in 0 W/m2
21:00 32.9 °F 30.3 °F 30.33 in SW 3 mph 6 mph 90% 0.00 in 0 W/m2
21:10 32.9 °F 30.3 °F 30.33 in WSW 3 mph 7 mph 90% 0.00 in 0 W/m2
21:20 32.9 °F 30.3 °F 30.33 in WSW 3 mph 8 mph 90% 0.00 in 0 W/m2
21:30 32.9 °F 30.3 °F 30.33 in WSW 5 mph 8 mph 90% 0.00 in 0 W/m2
21:40 32.9 °F 30.3 °F 30.33 in WNW 3 mph 7 mph 90% 0.00 in 0 W/m2
21:50 33.1 °F 30.2 °F 30.33 in West 3 mph 8 mph 89% 0.00 in 0 W/m2
22:00 33.1 °F 30.2 °F 30.33 in SSW 2 mph 5 mph 89% 0.00 in 0 W/m2
22:10 33.1 °F 30.2 °F 30.33 in NE 2 mph 6 mph 89% 0.00 in 0 W/m2
22:20 32.9 °F 30 °F 30.33 in NNE 1 mph 3 mph 89% 0.00 in 0 W/m2
22:30 32.9 °F 30 °F 30.33 in Calm   3 mph 89% 0.00 in 0 W/m2
22:40 32.9 °F 30 °F 30.33 in NE 2 mph 6 mph 89% 0.00 in 0 W/m2
22:50 32.9 °F 30 °F 30.33 in Calm   4 mph 89% 0.00 in 0 W/m2
23:00 32.7 °F 29.8 °F 30.33 in NW 1 mph 2 mph 89% 0.00 in 0 W/m2
23:10 32.7 °F 29.8 °F 30.33 in NNW 1 mph 3 mph 89% 0.00 in 0 W/m2
23:20 32.7 °F 29.8 °F 30.33 in NNW 2 mph 5 mph 89% 0.00 in 0 W/m2
23:30 32.7 °F 30.1 °F 30.33 in WNW 5 mph 6 mph 90% 0.00 in 0 W/m2
23:40 32.9 °F 30.3 °F 30.32 in West 5 mph 8 mph 90% 0.00 in 0 W/m2
23:50 32.9 °F 30.3 °F 30.32 in West 2 mph 7 mph 90% 0.00 in 0 W/m2
Knjazevac, Serbia
Compliments of Weather Underground - 2 mb